Location: San Vito
(41.8833°N, 12.9833°E)
Time: 11:19:00
(UTC+00:00)

Meteor 2-3 Rocket - Pass Details

Date: 17 November 2019
Orbit: 843 x 884 km, 81.2° (Epoch: 06 December)

Event Time Altitude Azimuth Distance (km) Brightness Sun altitude
Rises 05:00:28 0° 183° (S) 3,440 7.0 -11.1°
Reaches altitude 10° 05:02:52 10° 182° (S) 2,513 6.4 -10.7°
Maximum altitude 05:08:35 77° 98° (E) 905 4.0 -9.7°
Drops below altitude 10° 05:14:23 10° 13° (NNE) 2,550 6.2 -8.7°
Sets 05:16:51 0° 12° (NNE) 3,495 6.8 -8.2°
